When you browse on this site, cookies collect data to enhance your experience and personalize the content and advertising you see.
Visit our Privacy Policy to learn more. By continuing to use the site, you agree to this use of cookies and data.
  • en Suisse
  • Liste des pays
  • À 7 jours
  • Température de l'eau
  • Carte météo
  • Widgets météo
  • user-avatar
    Se connecter

    Météo par heure à Salgótarján

    Ce jour, 26 Mai, Mardi

    Heure Température Précipitation Vent Pression Humidité
    00:00 +8°C° 0 mm 1 m/s 737 mmHg 91%
    01:00 +7°C° 0 mm 1 m/s 737 mmHg 92%
    02:00 +7°C° 0 mm 1 m/s 737 mmHg 92%
    03:00 +7°C° 0 mm 1 m/s 737 mmHg 92%
    04:00 +6°C° 0 mm 1 m/s 737 mmHg 92%
    05:00 +8°C° 0 mm 1 m/s 737 mmHg 88%
    06:00 +10°C° 0 mm 1 m/s 738 mmHg 84%
    07:00 +12°C° 0 mm 1 m/s 738 mmHg 80%
    08:00 +13°C° 0.2 mm 2 m/s 738 mmHg 73%
    09:00 +15°C° 0.2 mm 2 m/s 738 mmHg 66%
    10:00 +17°C° 0.2 mm 2 m/s 738 mmHg 59%
    11:00 +17°C° 1.1 mm 2 m/s 738 mmHg 62%
    12:00 +17°C° 1.1 mm 3 m/s 738 mmHg 65%
    13:00 +17°C° 1.1 mm 3 m/s 738 mmHg 68%
    14:00 +17°C° 0.5 mm 3 m/s 737 mmHg 66%
    15:00 +17°C° 0.5 mm 2 m/s 737 mmHg 64%
    16:00 +17°C° 0.5 mm 2 m/s 737 mmHg 61%
    17:00 +16°C° 0.1 mm 2 m/s 737 mmHg 66%
    18:00 +14°C° 0.1 mm 2 m/s 737 mmHg 72%
    19:00 +13°C° 0.1 mm 2 m/s 737 mmHg 77%
    20:00 +12°C° 0 mm 2 m/s 737 mmHg 78%
    21:00 +10°C° 0 mm 2 m/s 738 mmHg 79%
    22:00 +9°C° 0 mm 2 m/s 738 mmHg 81%
    23:00 +9°C° 0 mm 2 m/s 738 mmHg 82%

    Demain, 27 Mai, Mercredi

    Heure Température Précipitation Vent Pression Humidité
    00:00 +8°C° 0 mm 2 m/s 738 mmHg 84%
    01:00 +8°C° 0 mm 2 m/s 738 mmHg 86%
    02:00 +8°C° 0 mm 2 m/s 738 mmHg 87%
    03:00 +8°C° 0 mm 2 m/s 738 mmHg 88%
    04:00 +7°C° 0 mm 2 m/s 738 mmHg 89%
    05:00 +9°C° 0 mm 2 m/s 738 mmHg 84%
    06:00 +12°C° 0 mm 2 m/s 739 mmHg 78%
    07:00 +14°C° 0 mm 2 m/s 739 mmHg 73%
    08:00 +15°C° 0.1 mm 2 m/s 739 mmHg 67%
    09:00 +17°C° 0.1 mm 2 m/s 739 mmHg 62%
    10:00 +19°C° 0.1 mm 3 m/s 739 mmHg 56%
    11:00 +19°C° 0.9 mm 2 m/s 739 mmHg 59%
    12:00 +19°C° 0.9 mm 2 m/s 739 mmHg 62%
    13:00 +19°C° 0.9 mm 2 m/s 738 mmHg 65%
    14:00 +19°C° 0.6 mm 2 m/s 738 mmHg 63%
    15:00 +19°C° 0.6 mm 2 m/s 738 mmHg 61%
    16:00 +19°C° 0.6 mm 2 m/s 738 mmHg 60%
    17:00 +19°C° 0.3 mm 1 m/s 738 mmHg 66%
    18:00 +16°C° 0.3 mm 1 m/s 738 mmHg 73%
    19:00 +14°C° 0.3 mm 1 m/s 737 mmHg 79%
    20:00 +13°C° 0 mm 1 m/s 737 mmHg 81%
    21:00 +12°C° 0 mm 1 m/s 738 mmHg 84%
    22:00 +11°C° 0 mm 1 m/s 738 mmHg 86%
    23:00 +10°C° 0 mm 1 m/s 737 mmHg 88%

    Après-demain, 28 Mai, Jeudi

    Heure Température Précipitation Vent Pression Humidité
    00:00 +10°C° 0 mm 1 m/s 737 mmHg 89%
    01:00 +9°C° 0 mm 1 m/s 737 mmHg 91%
    02:00 +9°C° 0 mm 1 m/s 737 mmHg 91%
    03:00 +8°C° 0 mm 1 m/s 737 mmHg 92%
    04:00 +8°C° 0 mm 1 m/s 736 mmHg 92%
    05:00 +9°C° 0 mm 1 m/s 736 mmHg 88%
    06:00 +11°C° 0 mm 1 m/s 736 mmHg 83%
    07:00 +13°C° 0 mm 1 m/s 737 mmHg 79%
    08:00 +15°C° 0 mm 1 m/s 737 mmHg 70%
    09:00 +18°C° 0 mm 1 m/s 737 mmHg 60%
    10:00 +20°C° 0 mm 1 m/s 737 mmHg 51%
    11:00 +19°C° 0 mm 2 m/s 736 mmHg 51%
    12:00 +19°C° 0 mm 2 m/s 736 mmHg 50%
    13:00 +19°C° 0 mm 3 m/s 736 mmHg 50%
    14:00 +19°C° 0.2 mm 3 m/s 735 mmHg 54%
    15:00 +18°C° 0.2 mm 3 m/s 735 mmHg 58%
    16:00 +18°C° 0.2 mm 3 m/s 735 mmHg 61%
    17:00 +17°C° 0.3 mm 2 m/s 735 mmHg 68%
    18:00 +15°C° 0.3 mm 2 m/s 734 mmHg 75%
    19:00 +13°C° 0.3 mm 1 m/s 734 mmHg 82%
    20:00 +12°C° 0 mm 1 m/s 734 mmHg 83%
    21:00 +11°C° 0 mm 1 m/s 735 mmHg 84%
    22:00 +9°C° 0 mm 1 m/s 735 mmHg 85%
    23:00 +9°C° 0 mm 1 m/s 735 mmHg 86%

    29 Mai, Vendredi

    Heure Température Précipitation Vent Pression Humidité
    00:00 +9°C° 0 mm 1 m/s 734 mmHg 87%
    01:00 +8°C° 0 mm 1 m/s 734 mmHg 87%
    02:00 +8°C° 0 mm 1 m/s 734 mmHg 88%
    03:00 +8°C° 0 mm 1 m/s 734 mmHg 89%
    04:00 +7°C° 0 mm 1 m/s 734 mmHg 90%
    05:00 +9°C° 0 mm 1 m/s 734 mmHg 85%
    06:00 +11°C° 0 mm 1 m/s 735 mmHg 81%
    07:00 +13°C° 0 mm 1 m/s 735 mmHg 76%
    08:00 +14°C° 0.2 mm 1 m/s 735 mmHg 70%
    09:00 +15°C° 0.2 mm 1 m/s 735 mmHg 64%
    10:00 +18°C° 0.2 mm 1 m/s 735 mmHg 58%
    11:00 +18°C° 0.4 mm 1 m/s 735 mmHg 56%
    12:00 +18°C° 0.4 mm 1 m/s 734 mmHg 53%
    13:00 +19°C° 0.4 mm 1 m/s 734 mmHg 51%
    14:00 +18°C° 0.3 mm 1 m/s 734 mmHg 55%
    15:00 +16°C° 0.3 mm 2 m/s 733 mmHg 60%
    16:00 +15°C° 0.3 mm 2 m/s 733 mmHg 64%
    17:00 +14°C° 0.2 mm 2 m/s 733 mmHg 68%
    18:00 +13°C° 0.2 mm 2 m/s 733 mmHg 71%
    19:00 +10°C° 0.2 mm 2 m/s 733 mmHg 75%
    20:00 +11°C° 0 mm 1 m/s 733 mmHg 74%
    21:00 +10°C° 0 mm 1 m/s 733 mmHg 74%
    22:00 +9°C° 0 mm 1 m/s 734 mmHg 74%
    23:00 +9°C° 0 mm 1 m/s 733 mmHg 76%

    30 Mai, Samedi

    Heure Température Précipitation Vent Pression Humidité
    00:00 +8°C° 0 mm 1 m/s 733 mmHg 78%
    01:00 +7°C° 0 mm 1 m/s 733 mmHg 80%
    02:00 +7°C° 0 mm 1 m/s 733 mmHg 82%
    03:00 +6°C° 0 mm 1 m/s 733 mmHg 83%
    04:00 +6°C° 0 mm 1 m/s 733 mmHg 85%
    05:00 +8°C° 0 mm 1 m/s 733 mmHg 79%
    06:00 +10°C° 0 mm 1 m/s 733 mmHg 73%
    07:00 +12°C° 0 mm 1 m/s 733 mmHg 67%
    08:00 +13°C° 0.1 mm 1 m/s 733 mmHg 60%
    09:00 +15°C° 0.1 mm 1 m/s 734 mmHg 54%
    10:00 +16°C° 0.1 mm 1 m/s 734 mmHg 48%
    11:00 +16°C° 0.3 mm 1 m/s 733 mmHg 51%
    12:00 +16°C° 0.3 mm 2 m/s 733 mmHg 54%
    13:00 +16°C° 0.3 mm 2 m/s 733 mmHg 57%
    14:00 +16°C° 0.3 mm 2 m/s 733 mmHg 57%
    15:00 +16°C° 0.3 mm 1 m/s 733 mmHg 57%
    16:00 +16°C° 0.3 mm 1 m/s 733 mmHg 58%
    17:00 +14°C° 0.4 mm 1 m/s 732 mmHg 66%
    18:00 +13°C° 0.4 mm 1 m/s 732 mmHg 74%
    19:00 +11°C° 0.4 mm 1 m/s 732 mmHg 82%
    20:00 +10°C° 0 mm 1 m/s 732 mmHg 84%
    21:00 +9°C° 0 mm 1 m/s 733 mmHg 87%
    22:00 +8°C° 0 mm 1 m/s 733 mmHg 89%
    23:00 +7°C° 0 mm 1 m/s 733 mmHg 90%

    31 Mai, Dimanche

    Heure Température Précipitation Vent Pression Humidité
    00:00 +6°C° 0 mm 0 m/s 733 mmHg 91%
    01:00 +6°C° 0 mm 0 m/s 732 mmHg 91%
    02:00 +5°C° 0 mm 0 m/s 732 mmHg 92%
    03:00 +5°C° 0 mm 0 m/s 732 mmHg 92%
    04:00 +5°C° 0 mm 0 m/s 732 mmHg 92%
    05:00 +6°C° 0 mm 0 m/s 732 mmHg 89%
    06:00 +8°C° 0 mm 0 m/s 732 mmHg 86%
    07:00 +11°C° 0 mm 1 m/s 732 mmHg 83%
    08:00 +12°C° 0 mm 1 m/s 732 mmHg 76%
    09:00 +14°C° 0 mm 2 m/s 732 mmHg 68%
    10:00 +14°C° 0 mm 3 m/s 732 mmHg 60%
    11:00 +16°C° 0 mm 3 m/s 732 mmHg 57%
    12:00 +16°C° 0 mm 3 m/s 731 mmHg 53%
    13:00 +17°C° 0 mm 3 m/s 731 mmHg 50%
    14:00 +17°C° 0 mm 4 m/s 731 mmHg 53%
    15:00 +15°C° 0 mm 4 m/s 731 mmHg 56%
    16:00 +15°C° 0 mm 4 m/s 730 mmHg 59%
    17:00 +14°C° 0 mm 3 m/s 730 mmHg 66%
    18:00 +12°C° 0 mm 3 m/s 730 mmHg 72%
    19:00 +12°C° 0 mm 2 m/s 730 mmHg 79%
    20:00 +10°C° 0 mm 2 m/s 730 mmHg 82%
    21:00 +10°C° 0 mm 1 m/s 730 mmHg 86%
    22:00 +9°C° 0 mm 1 m/s 730 mmHg 90%
    23:00 +9°C° 0.1 mm 1 m/s 730 mmHg 91%
    Voir plus